When you browse on this site, cookies collect data to enhance your experience and personalize the content and advertising you see.
Visit our Privacy Policy to learn more. By continuing to use the site, you agree to this use of cookies and data.
  • In United Kingdom
  • List of Countries
  • For 7 days
  • Water Temperature
  • Satellite Maps
  • Weather Map
  • Weather Widgets
  • user-avatar
    Login

    Hourly Weather Belize

    Today, 23 January, Wednesday

    Time Temperature Precipitation Wind Pressure Humidity
    00:00 +26°C° 0 mm 5 mps 761 mmHg 85%
    01:00 +26°C° 0 mm 5 mps 760 mmHg 85%
    02:00 +26°C° 0 mm 5 mps 760 mmHg 85%
    03:00 +26°C° 0 mm 4 mps 760 mmHg 85%
    04:00 +26°C° 0 mm 5 mps 760 mmHg 86%
    05:00 +26°C° 0 mm 5 mps 760 mmHg 87%
    06:00 +26°C° 0 mm 5 mps 760 mmHg 87%
    07:00 +27°C° 0 mm 5 mps 760 mmHg 82%
    08:00 +28°C° 0 mm 5 mps 760 mmHg 77%
    09:00 +29°C° 0 mm 6 mps 761 mmHg 72%
    10:00 +30°C° 0 mm 5 mps 761 mmHg 68%
    11:00 +30°C° 0 mm 5 mps 760 mmHg 65%
    12:00 +32°C° 0 mm 5 mps 760 mmHg 61%
    13:00 +32°C° 0 mm 5 mps 760 mmHg 62%
    14:00 +32°C° 0 mm 5 mps 759 mmHg 63%
    15:00 +30°C° 0 mm 5 mps 759 mmHg 65%
    16:00 +29°C° 0 mm 5 mps 759 mmHg 71%
    17:00 +28°C° 0 mm 4 mps 759 mmHg 78%
    18:00 +27°C° 0 mm 4 mps 759 mmHg 85%
    19:00 +27°C° 0 mm 4 mps 759 mmHg 87%
    20:00 +26°C° 0 mm 4 mps 760 mmHg 89%
    21:00 +26°C° 0 mm 4 mps 760 mmHg 91%
    22:00 +26°C° 0.1 mm 3 mps 760 mmHg 92%
    23:00 +26°C° 0.1 mm 2 mps 760 mmHg 92%

    Tomorrow, 24 January, Thursday

    Time Temperature Precipitation Wind Pressure Humidity
    00:00 +26°C° 0.1 mm 2 mps 760 mmHg 93%
    01:00 +25°C° 0.3 mm 2 mps 760 mmHg 94%
    02:00 +25°C° 0.3 mm 1 mps 760 mmHg 95%
    03:00 +25°C° 0.3 mm 1 mps 760 mmHg 96%
    04:00 +24°C° 0.5 mm 2 mps 760 mmHg 96%
    05:00 +24°C° 0.5 mm 2 mps 760 mmHg 96%
    06:00 +24°C° 0.5 mm 3 mps 760 mmHg 96%
    07:00 +25°C° 0.1 mm 3 mps 761 mmHg 93%
    08:00 +26°C° 0.1 mm 3 mps 761 mmHg 90%
    09:00 +27°C° 0.1 mm 3 mps 762 mmHg 88%
    10:00 +28°C° 0.1 mm 3 mps 762 mmHg 80%
    11:00 +29°C° 0.1 mm 3 mps 762 mmHg 72%
    12:00 +31°C° 0.1 mm 3 mps 761 mmHg 64%
    13:00 +31°C° 0.1 mm 3 mps 761 mmHg 63%
    14:00 +31°C° 0.1 mm 3 mps 760 mmHg 63%
    15:00 +31°C° 0.1 mm 3 mps 759 mmHg 62%
    16:00 +30°C° 0.1 mm 2 mps 760 mmHg 70%
    17:00 +28°C° 0.1 mm 2 mps 760 mmHg 78%
    18:00 +26°C° 0.1 mm 2 mps 760 mmHg 86%
    19:00 +26°C° 0.5 mm 2 mps 761 mmHg 88%
    20:00 +26°C° 0.5 mm 2 mps 761 mmHg 91%
    21:00 +25°C° 0.5 mm 2 mps 762 mmHg 93%
    22:00 +25°C° 0.2 mm 3 mps 762 mmHg 94%
    23:00 +24°C° 0.2 mm 3 mps 762 mmHg 95%

    Day after tomorrow, 25 January, Friday

    Time Temperature Precipitation Wind Pressure Humidity
    00:00 +23°C° 0.2 mm 4 mps 762 mmHg 96%
    01:00 +23°C° 0.1 mm 4 mps 762 mmHg 96%
    02:00 +23°C° 0.1 mm 4 mps 761 mmHg 95%
    03:00 +23°C° 0.1 mm 5 mps 761 mmHg 95%
    04:00 +23°C° 0.2 mm 5 mps 761 mmHg 95%
    05:00 +23°C° 0.2 mm 4 mps 761 mmHg 94%
    06:00 +23°C° 0.2 mm 4 mps 762 mmHg 94%
    07:00 +23°C° 0.2 mm 4 mps 762 mmHg 92%
    08:00 +25°C° 0.2 mm 4 mps 763 mmHg 90%
    09:00 +25°C° 0.2 mm 4 mps 764 mmHg 88%
    10:00 +26°C° 0.3 mm 4 mps 764 mmHg 86%
    11:00 +26°C° 0.3 mm 4 mps 763 mmHg 84%
    12:00 +26°C° 0.3 mm 4 mps 763 mmHg 81%
    13:00 +27°C° 0.3 mm 4 mps 763 mmHg 80%
    14:00 +27°C° 0.3 mm 4 mps 762 mmHg 79%
    15:00 +27°C° 0.3 mm 4 mps 762 mmHg 78%
    16:00 +26°C° 0.3 mm 4 mps 762 mmHg 82%
    17:00 +25°C° 0.3 mm 5 mps 762 mmHg 87%
    18:00 +23°C° 0.3 mm 5 mps 762 mmHg 92%
    19:00 +23°C° 0.2 mm 5 mps 763 mmHg 92%
    20:00 +22°C° 0.2 mm 6 mps 763 mmHg 92%
    21:00 +22°C° 0.2 mm 6 mps 764 mmHg 93%
    22:00 +22°C° 0.1 mm 6 mps 764 mmHg 92%
    23:00 +22°C° 0.1 mm 6 mps 764 mmHg 91%

    26 January, Saturday

    Time Temperature Precipitation Wind Pressure Humidity
    00:00 +22°C° 0.1 mm 5 mps 763 mmHg 90%
    01:00 +21°C° 0 mm 5 mps 763 mmHg 91%
    02:00 +21°C° 0 mm 5 mps 762 mmHg 91%
    03:00 +21°C° 0 mm 5 mps 762 mmHg 91%
    04:00 +21°C° 0 mm 5 mps 762 mmHg 92%
    05:00 +21°C° 0 mm 5 mps 762 mmHg 92%
    06:00 +21°C° 0 mm 4 mps 762 mmHg 92%
    07:00 +21°C° 0 mm 4 mps 762 mmHg 92%
    08:00 +21°C° 0 mm 4 mps 763 mmHg 92%
    09:00 +21°C° 0 mm 4 mps 763 mmHg 91%
    10:00 +22°C° 0 mm 4 mps 763 mmHg 85%
    11:00 +25°C° 0 mm 4 mps 763 mmHg 80%
    12:00 +26°C° 0 mm 4 mps 762 mmHg 74%
    13:00 +26°C° 0.3 mm 4 mps 762 mmHg 79%
    14:00 +25°C° 0.3 mm 4 mps 761 mmHg 83%
    15:00 +25°C° 0.3 mm 4 mps 760 mmHg 88%
    16:00 +25°C° 0.5 mm 4 mps 760 mmHg 90%
    17:00 +23°C° 0.5 mm 4 mps 761 mmHg 92%
    18:00 +23°C° 0.5 mm 4 mps 761 mmHg 95%
    19:00 +23°C° 0.1 mm 4 mps 761 mmHg 94%
    20:00 +23°C° 0.1 mm 4 mps 761 mmHg 94%
    21:00 +23°C° 0.1 mm 4 mps 762 mmHg 94%
    22:00 +24°C° 0.1 mm 3 mps 761 mmHg 94%
    23:00 +22°C° 0.1 mm 3 mps 761 mmHg 94%

    27 January, Sunday

    Time Temperature Precipitation Wind Pressure Humidity
    00:00 +23°C° 0.1 mm 2 mps 761 mmHg 95%
    01:00 +23°C° 0.1 mm 2 mps 760 mmHg 95%
    02:00 +23°C° 0.1 mm 2 mps 760 mmHg 95%
    03:00 +23°C° 0.1 mm 2 mps 759 mmHg 95%
    04:00 +23°C° 0 mm 2 mps 759 mmHg 96%
    05:00 +23°C° 0 mm 2 mps 759 mmHg 96%
    06:00 +22°C° 0 mm 3 mps 760 mmHg 97%
    07:00 +23°C° 0 mm 2 mps 760 mmHg 95%
    08:00 +24°C° 0 mm 2 mps 761 mmHg 93%
    09:00 +24°C° 0 mm 2 mps 761 mmHg 91%
    10:00 +26°C° 0 mm 2 mps 761 mmHg 83%
    11:00 +28°C° 0 mm 1 mps 760 mmHg 75%
    12:00 +30°C° 0 mm 1 mps 760 mmHg 67%
    13:00 +30°C° 0 mm 2 mps 759 mmHg 65%
    14:00 +30°C° 0 mm 2 mps 758 mmHg 64%
    15:00 +30°C° 0 mm 2 mps 757 mmHg 62%
    16:00 +29°C° 0 mm 3 mps 758 mmHg 69%
    17:00 +28°C° 0 mm 3 mps 758 mmHg 76%
    18:00 +26°C° 0 mm 3 mps 758 mmHg 82%
    19:00 +26°C° 0 mm 2 mps 758 mmHg 85%
    20:00 +25°C° 0 mm 2 mps 758 mmHg 87%
    21:00 +25°C° 0 mm 2 mps 759 mmHg 90%
    22:00 +25°C° 0 mm 1 mps 759 mmHg 90%
    23:00 +24°C° 0 mm 1 mps 759 mmHg 91%

    28 January, Monday

    Time Temperature Precipitation Wind Pressure Humidity
    00:00 +24°C° 0 mm 1 mps 759 mmHg 92%
    01:00 +24°C° 0 mm 1 mps 758 mmHg 93%
    02:00 +24°C° 0 mm 1 mps 758 mmHg 95%
    03:00 +23°C° 0 mm 1 mps 758 mmHg 96%
    04:00 +23°C° 0 mm 1 mps 758 mmHg 97%
    05:00 +23°C° 0 mm 2 mps 758 mmHg 97%
    06:00 +23°C° 0 mm 2 mps 758 mmHg 98%
    07:00 +24°C° 0 mm 2 mps 759 mmHg 91%
    08:00 +26°C° 0 mm 2 mps 759 mmHg 84%
    09:00 +27°C° 0 mm 3 mps 760 mmHg 77%
    10:00 +29°C° 0 mm 2 mps 759 mmHg 68%
    11:00 +31°C° 0 mm 1 mps 759 mmHg 59%
    12:00 +33°C° 0 mm 1 mps 758 mmHg 50%
    13:00 +33°C° 0 mm 1 mps 758 mmHg 50%
    14:00 +34°C° 0 mm 2 mps 757 mmHg 50%
    15:00 +34°C° 0 mm 3 mps 756 mmHg 49%
    16:00 +31°C° 0 mm 3 mps 756 mmHg 60%
    17:00 +29°C° 0 mm 3 mps 756 mmHg 70%
    18:00 +27°C° 0 mm 3 mps 756 mmHg 80%
    19:00 +27°C° 0 mm 3 mps 757 mmHg 82%
    20:00 +26°C° 0 mm 2 mps 757 mmHg 85%
    21:00 +26°C° 0 mm 2 mps 758 mmHg 87%
    22:00 +26°C° 0 mm 2 mps 757 mmHg 88%
    23:00 +25°C° 0 mm 2 mps 757 mmHg 88%
    Show more